[[{"header":{"parameterUnit":"m.s-1","parameterCategory":1,"la1":30.2991,"la2":30.254,"lo1":-89.0895,"lo2":-89.0444,"dy":0.0017,"dx":0.0017,"nx":28,"ny":28,"refTime":"2025-05-19T09:00:00:Z","depth":0,"parameterNumber":2,"parameterNumberName":"U-component_of_WINDS"},"data":[0,0,0,0,0,0,0,0,0,0,0,0,0,0,0,0,0,0,0,0,0,0,0,0,0,0,0,0,0,0,0,0,0,0,0,0,0,0,0,0,0,0,0,0,0,0,0,0,0,0,0,0,0,0,0,0,0,0,0.5045,0.5046,0,0.5099,0.5099,0.51,0.5063,0.5062,0.506,0.5059,0.5116,0.5118,0.5122,0,0,0,0,0,0,0,0,0,0,0,0,0,0.4911,0.4913,0.5045,0.5046,0.5046,0.5099,0.5099,0.51,0.5064,0.5062,0.506,0.5058,0.5115,0.5118,0.5122,0,0,0,0,0,0,0,0,0,0,0,0,0,0.4967,0.4914,0.5045,0.5034,0.5034,0.5099,0.51,0.51,0.5064,0.5062,0.5059,0.5057,0.5113,0.5118,0.5122,0.5201,0,0,0.5136,0.5138,0,0,0,0,0,0,0,0,0.4964,0.4972,0.5035,0.5035,0.5035,0.5072,0.5073,0.5134,0.5065,0.5053,0.5059,0.5056,0.5103,0.5108,0.5124,0.5203,0.5206,0.5137,0.514,0.5142,0.5143,0,0,0,0,0,0,0,0.496,0.497,0.5066,0.5036,0.5036,0.5027,0.5032,0.5084,0.5091,0.5054,0.5051,0.5058,0.5103,0.512,0.5125,0.5207,0.5137,0.5141,0.5144,0.5145,0.5351,0.5354,0,0,0,0,0,0,0.4957,0.4967,0.5065,0.5068,0.4993,0.5032,0.5037,0.5063,0.5091,0.5093,0.506,0.5056,0.5113,0.512,0.5127,0.522,0.5142,0.5146,0.5148,0.5349,0.5352,0.5355,0,0,0,0,0,0,0.4954,0.4966,0.5062,0.5017,0.5028,0.5036,0.5065,0.5065,0.5082,0.5095,0.5097,0.5076,0.5111,0.512,0.5182,0.5222,0.5148,0.5152,0.5346,0.535,0.5354,0.5407,0,0,0,0,0,0,0.4951,0.4966,0.4996,0.5018,0.5031,0.5117,0.5067,0.5068,0.509,0.5085,0.5111,0.5113,0.511,0.5176,0.5187,0.5227,0.5156,0.5342,0.5347,0.5352,0.5402,0.5413,0.5422,0,0,0,0,0,0.4946,0.5009,0.4997,0.5009,0.5069,0.5119,0.5127,0.5122,0.5093,0.5123,0.5132,0.5112,0.5215,0.5182,0.5195,0.5236,0.534,0.5346,0.5352,0.5398,0.5411,0.5422,0,0,0,0,0,0,0.4993,0.5012,0.4999,0.5071,0.5094,0.5113,0.5151,0.5136,0.5168,0.5162,0.5155,0.5161,0.5226,0.5237,0.52,0.5313,0.5273,0.5282,0.5304,0.5316,0.5326,0.5322,0.516,0,0,0,0,0,0.5011,0.5051,0.5065,0.5128,0.514,0.5143,0.5165,0.5159,0.5183,0.5192,0.5205,0.5229,0.5266,0.5292,0.5327,0.5403,0.5408,0.5438,0.5447,0.5455,0.5464,0.5504,0.5517,0.5375,0.5375,0.5375,0,0,0.5051,0.5066,0.5091,0.5137,0.5154,0.5195,0.5152,0.5198,0.5228,0.52,0.5258,0.5268,0.5294,0.5363,0.5394,0.5375,0.5504,0.5463,0.547,0.5474,0.5512,0.5525,0.5537,0.5379,0.5378,0.5378,0,0,0.5143,0.5158,0.5212,0.5229,0.5254,0.5256,0.5269,0.529,0.5295,0.5354,0.5333,0.5369,0.5434,0.5453,0.5471,0.5568,0.5551,0.5579,0.5632,0.5671,0.5682,0.5692,0.5727,0.5739,0.5587,0.5587,0.5588,0,0.5189,0.525,0.5241,0.5288,0.5309,0.5283,0.5337,0.5354,0.539,0.5405,0.5382,0.5462,0.5477,0.555,0.5573,0.5589,0.5603,0.5578,0.5681,0.5691,0.57,0.5733,0.5746,0.5591,0.559,0.559,0.559,0,0.5304,0.5347,0.5387,0.5421,0.5446,0.5496,0.5495,0.5521,0.5512,0.5516,0.5575,0.5593,0.5631,0.5647,0.5639,0.5718,0.5705,0.5682,0.5642,0.5717,0.5748,0.5761,0.5596,0.5594,0.5593,0.5593,0,0,0.543,0.5457,0.5472,0.5487,0.5512,0.5545,0.5593,0.5629,0.5652,0.5677,0.5717,0.5771,0.5749,0.577,0.5763,0.5798,0.5873,0.577,0.577,0.5789,0.5961,0.5979,0.5994,0.5861,0.5863,0.5865,0.5958,0,0.5524,0.5608,0.5601,0.5681,0.572,0.5695,0.5736,0.5756,0.5761,0.5794,0.5799,0.5837,0.5805,0.5817,0.585,0.5857,0.5907,0.585,0.5899,0.5901,0.5894,0.601,0.6029,0.6117,0.597,0.5973,0.5974,0,0.5646,0.5674,0.5758,0.5775,0.5791,0.5829,0.5861,0.5893,0.5914,0.5915,0.5937,0.5924,0.5972,0.5929,0.5995,0.5956,0.5975,0.5982,0.5985,0.599,0.5943,0.6019,0.6145,0.6158,0.5993,0.5991,0.599,0,0.573,0.5788,0.5846,0.5859,0.5881,0.5908,0.5919,0.5937,0.5959,0.5987,0.6,0.6033,0.6052,0.6077,0.6074,0.6043,0.6141,0.6098,0.6143,0.6143,0.6166,0.6165,0.6297,0.6177,0.6177,0.6176,0.6176,0,0.5837,0.5889,0.5883,0.5919,0.5976,0.5966,0.6023,0.603,0.6047,0.6083,0.6063,0.6097,0.6089,0.6123,0.612,0.6175,0.6184,0.6185,0.6184,0.6188,0.6188,0.6201,0.6196,0.618,0.6179,0.6178,0.6178,0,0.5941,0.5939,0.6,0.6015,0.602,0.6062,0.6075,0.6108,0.6109,0.6155,0.6165,0.6168,0.6207,0.6205,0.6249,0.6247,0.6314,0.6306,0.6307,0.6306,0.6351,0.6347,0.6498,0.6517,0.6383,0.6384,0.6385,0,0.601,0.6049,0.6068,0.609,0.6102,0.6139,0.616,0.6151,0.6175,0.62,0.623,0.6267,0.6296,0.6358,0.6364,0.6397,0.639,0.644,0.6395,0.6397,0.6391,0.6389,0.6393,0.645,0.6451,0.6453,0.6454,0,0.6132,0.6129,0.616,0.6191,0.6217,0.6242,0.6264,0.6283,0.6277,0.6303,0.6342,0.6364,0.6408,0.6445,0.6476,0.6486,0.6469,0.6467,0.6479,0.6484,0.6484,0.6485,0.6332,0.6464,0.6463,0.6463,0.6462,0.6462,0.6221,0.6254,0.6272,0.6308,0.6323,0.6344,0.6375,0.638,0.6412,0.6447,0.6439,0.6483,0.6501,0.6541,0.6554,0.6588,0.657,0.6587,0.6592,0.6597,0.6602,0.6477,0.6593,0.6593,0.6593,0.6592,0.6592,0,0.6342,0.6352,0.6385,0.6416,0.6443,0.6423,0.6446,0.647,0.6509,0.6527,0.6555,0.6599,0.6634,0.6641,0.6674,0.67,0.6692,0.6709,0.6707,0.671,0.6616,0.6602,0.6714,0.6714,0.6714,0.6714,0.6714,0.6714,0.6409,0.6464,0.6463,0.6525,0.6534,0.6576,0.6591,0.6609,0.6624,0.6673,0.6702,0.6706,0.672,0.6753,0.6784,0.6785,0.6798,0.6818,0.6816,0.6729,0.6717,0.6705,0.6692,0.682,0.6821,0.6907,0.6908,0.6908]},{"header":{"parameterUnit":"m.s-1","parameterCategory":1,"la1":30.2991,"la2":30.254,"lo1":-89.0895,"lo2":-89.0444,"dy":0.0017,"dx":0.0017,"nx":28,"ny":28,"refTime":"2025-05-19T09:00:00:Z","depth":0,"parameterNumber":3,"parameterNumberName":"V-component_of_WINDS"},"data":[0,0,0,0,0,0,0,0,0,0,0,0,0,0,0,0,0,0,0,0,0,0,0,0,0,0,0,0,0,0,0,0,0,0,0,0,0,0,0,0,0,0,0,0,0,0,0,0,0,0,0,0,0,0,0,0,0,0,5.5777,5.5777,0,5.576,5.576,5.576,5.5688,5.5687,5.5685,5.5683,5.5666,5.5667,5.5668,0,0,0,0,0,0,0,0,0,0,0,0,0,5.5748,5.5749,5.5777,5.5777,5.5777,5.576,5.576,5.576,5.5689,5.5687,5.5685,5.5683,5.5666,5.5667,5.5668,0,0,0,0,0,0,0,0,0,0,0,0,0,5.5749,5.5749,5.5777,5.5739,5.5736,5.576,5.576,5.5759,5.5689,5.5687,5.5684,5.5682,5.5665,5.5667,5.5669,5.5728,0,0,5.5673,5.5674,0,0,0,0,0,0,0,0,5.5749,5.575,5.5745,5.5742,5.5738,5.5724,5.5743,5.5749,5.569,5.5707,5.5683,5.5681,5.5687,5.5687,5.5689,5.5727,5.5726,5.5674,5.5675,5.5675,5.5676,0,0,0,0,0,0,0,5.5749,5.575,5.577,5.5745,5.5741,5.5723,5.572,5.5744,5.5711,5.5705,5.57,5.5699,5.5685,5.5688,5.5688,5.5726,5.5674,5.5675,5.5676,5.5677,5.581,5.5813,0,0,0,0,0,0,5.5754,5.5751,5.5771,5.577,5.5738,5.5726,5.5723,5.5731,5.5711,5.5705,5.5701,5.5696,5.5686,5.5686,5.5687,5.5754,5.5675,5.5677,5.5678,5.5808,5.5811,5.5813,0,0,0,0,0,0,5.5754,5.5757,5.5772,5.5759,5.5759,5.5729,5.5739,5.5732,5.5735,5.5708,5.5701,5.571,5.5684,5.5685,5.5718,5.5753,5.5678,5.5679,5.5805,5.5809,5.5812,5.589,0,0,0,0,0,0,5.5754,5.5757,5.578,5.576,5.576,5.5803,5.5741,5.5733,5.5738,5.573,5.5714,5.5709,5.5682,5.5716,5.572,5.5754,5.568,5.5801,5.5806,5.5811,5.5884,5.5896,5.5906,0,0,0,0,0,5.5753,5.5803,5.5781,5.5784,5.5788,5.5805,5.5806,5.5773,5.5741,5.5763,5.5745,5.571,5.5749,5.572,5.5723,5.5759,5.5799,5.5805,5.581,5.5879,5.5894,5.5906,0,0,0,0,0,0,5.5828,5.58,5.5775,5.5821,5.5816,5.5793,5.582,5.579,5.5795,5.5788,5.5748,5.5745,5.5783,5.5774,5.5743,5.5814,5.5768,5.5774,5.5819,5.5832,5.5843,5.5844,5.5682,0,0,0,0,0,5.585,5.5867,5.5841,5.5883,5.5882,5.5852,5.5858,5.5834,5.5827,5.5825,5.5809,5.5805,5.5815,5.5823,5.5832,5.5882,5.5877,5.5908,5.5919,5.5928,5.5935,5.5959,5.5972,5.5833,5.5832,5.5832,0,0,5.5896,5.5882,5.5895,5.5898,5.5891,5.5909,5.5851,5.5872,5.5884,5.5828,5.5858,5.5846,5.5838,5.588,5.5897,5.5873,5.5972,5.5936,5.5943,5.5945,5.5967,5.598,5.5992,5.5836,5.5836,5.5835,0,0,5.5988,5.5979,5.6013,5.6007,5.5998,5.5977,5.5985,5.5967,5.5957,5.5986,5.5943,5.5957,5.5977,5.5972,5.5973,5.6061,5.6028,5.6065,5.6122,5.6147,5.6158,5.6167,5.6198,5.6209,5.6071,5.6071,5.6071,0,5.6046,5.607,5.6034,5.6058,5.606,5.6009,5.6042,5.6038,5.6033,5.6035,5.6008,5.603,5.6021,5.6061,5.6082,5.6084,5.6091,5.6066,5.6159,5.6168,5.6177,5.6205,5.6217,5.6076,5.6075,5.6075,5.6074,0,5.6141,5.6159,5.6187,5.6182,5.6187,5.6216,5.6184,5.6193,5.6168,5.615,5.6179,5.6166,5.617,5.6178,5.6154,5.6213,5.6199,5.6166,5.6119,5.6195,5.6221,5.6232,5.6082,5.6081,5.6079,5.6078,0,0,5.6282,5.6254,5.6265,5.6261,5.6246,5.6259,5.6285,5.6288,5.6297,5.6294,5.6314,5.6331,5.63,5.63,5.6275,5.6297,5.6366,5.6261,5.626,5.628,5.6429,5.6453,5.6467,5.6344,5.6346,5.6348,5.6429,0,5.6368,5.641,5.6378,5.6426,5.6441,5.6392,5.6414,5.6407,5.639,5.64,5.6382,5.6394,5.6353,5.6353,5.6372,5.6354,5.6395,5.6347,5.6362,5.6363,5.6365,5.648,5.6506,5.6584,5.6439,5.6441,5.6442,0,5.6476,5.6476,5.6526,5.6505,5.651,5.6531,5.6531,5.6541,5.6531,5.6518,5.6517,5.6486,5.6509,5.6462,5.6493,5.6461,5.6465,5.6456,5.6458,5.6458,5.6407,5.6482,5.6608,5.662,5.6458,5.6457,5.6456,0,5.6572,5.6585,5.6616,5.6614,5.6592,5.6607,5.6598,5.6586,5.659,5.6589,5.6591,5.6594,5.6596,5.6598,5.6568,5.6537,5.6602,5.6553,5.659,5.6591,5.6606,5.6606,5.6734,5.661,5.661,5.661,5.661,0,5.6672,5.6704,5.6658,5.6677,5.6711,5.6673,5.6707,5.6693,5.6682,5.6697,5.6655,5.667,5.6629,5.664,5.6616,5.6644,5.6645,5.6634,5.6628,5.6638,5.6639,5.664,5.6633,5.6613,5.6612,5.6612,5.6611,0,5.6785,5.6756,5.6786,5.6762,5.6756,5.6782,5.6761,5.6777,5.6757,5.6776,5.6778,5.6747,5.6757,5.6727,5.6732,5.6716,5.6757,5.6742,5.676,5.6755,5.6794,5.679,5.6926,5.6942,5.6809,5.6811,5.6812,0,5.6851,5.6874,5.6851,5.6858,5.6851,5.6863,5.6866,5.6829,5.6834,5.6823,5.6841,5.6847,5.6849,5.6867,5.6845,5.6848,5.6832,5.688,5.6833,5.6842,5.6832,5.683,5.6832,5.6889,5.6891,5.6892,5.6894,0,5.697,5.6954,5.696,5.6961,5.6965,5.6964,5.696,5.6968,5.6928,5.6935,5.6944,5.6947,5.6951,5.6957,5.6956,5.6946,5.6913,5.6908,5.6917,5.6927,5.6937,5.6931,5.6786,5.6905,5.6904,5.6903,5.6903,5.6902,5.7061,5.7078,5.7065,5.7072,5.7065,5.7062,5.7075,5.7056,5.7063,5.7063,5.7041,5.7054,5.7042,5.7036,5.703,5.7039,5.7017,5.703,5.7033,5.7037,5.7043,5.6936,5.7039,5.7039,5.7038,5.7038,5.7038,0,5.7177,5.7166,5.7173,5.7168,5.7173,5.7141,5.7134,5.7141,5.7153,5.7144,5.7147,5.7157,5.7162,5.714,5.7142,5.7154,5.7138,5.7155,5.7154,5.7152,5.7063,5.7055,5.7167,5.7167,5.7167,5.7167,5.7167,5.7167,5.7238,5.7266,5.7248,5.727,5.7258,5.727,5.7269,5.7265,5.7258,5.727,5.7274,5.7259,5.7245,5.7245,5.7248,5.7241,5.7244,5.7266,5.7254,5.7171,5.7158,5.7146,5.7138,5.7267,5.7267,5.7341,5.7342,5.7343]}]]